This demonstration page uses our WeatherBlox Daily Observations layout. Learn more.

38.89511, -77.03637

Hourly Observations for January 24, 2015

Temp ( °F °C ) Dew Point ( °F °C ) Humidity (%) Winds ( mph kmh ) Pressure ( in mb ) Visibility ( mi km ) Precip ( " mm )
12:01 am 00:01 Cloudy with Rain 37 3 32 0 81 81 NE 10 17 29.85 1011 2.5 4.02336 0.03 0.762
12:50 am 00:50 Cloudy with Rain 37 3 34 1 87 87 N 5 7 29.83 1010 3 4.828032 0 0
12:52 am 00:52 Cloudy with Rain 37 3 34 1 87 87 N 3 6 29.83 1010 3 4.828032 0.25 6.35
12:59 am 00:59 Cloudy with Rain 37 3 34 1 87 87 Calm 29.83 1010 2.5 4.02336 0.03 0.762
1:30 am 01:30 Cloudy with Rain 37 3 34 1 87 87 NNE 6 9 29.8 1009 2 3.218688 0 0
1:47 am 01:47 Cloudy with Light Rain 37 3 32 0 81 81 NNE 6 9 29.8 1009 2 3.218688 0.14 3.556
1:52 am 01:52 Cloudy with Light Rain 37 3 32 0 81 81 NNE 8 13 29.77 1008 3 4.828032 0.15 3.81
2:16 am 02:16 Cloudy with Light Rain 37 3 32 0 81 81 NNE 8 13 29.77 1008 3 4.828032 0 0
2:52 am 02:52 Cloudy with Light Rain 37 3 32 0 81 81 NE 10 17 29.74 1007 3 4.828032 0.06 1.524
2:54 am 02:54 Cloudy with Light Rain 37 3 32 0 81 81 NE 8 13 29.74 1007 4 6.437376 0 0
3:04 am 03:04 Cloudy with Light Rain 37 3 32 0 81 81 NNE 8 13 29.74 1007 2.5 4.02336 0.02 0.508
3:16 am 03:16 Cloudy with Light Rain 37 3 32 0 81 81 NNE 7 11 29.71 1006 3 4.828032 0 0
3:23 am 03:23 Cloudy with Light Rain 37 3 32 0 81 81 NE 6 9 29.71 1006 3 4.828032 0.04 1.016
3:52 am 03:52 Cloudy 37 3 32 0 81 81 NE 8 13 29.68 1005 7 11.265408 0.04 1.016
4:52 am 04:52 Cloudy 37 3 32 0 81 81 NE 8 13 29.65 1004 10 16.09344 0 0
5:52 am 05:52 Cloudy with Light Rain 37 3 34 1 87 87 N 8 13 29.62 1003 6 9.656064 0.01 0.254
6:33 am 06:33 Cloudy with Mist and Fog 37 3 34 1 87 87 N 8 13 29.59 1002 6 9.656064 0.001 0.001
6:52 am 06:52 Cloudy with Mist and Fog 37 3 34 1 87 87 NNW 12 19 29.59 1002 6 9.656064 0.001 0.001
7:01 am 07:01 Cloudy 37 3 34 1 87 87 NNW 12 19 29.59 1002 7 11.265408 0 0
7:25 am 07:25 Cloudy with Light Drizzle 37 3 34 1 87 87 N 12 19 29.59 1002 5 8.04672 0.001 0.001
7:49 am 07:49 Cloudy with Light Rain 37 3 34 1 87 87 N 9 15 29.56 1001 2.5 4.02336 0.001 0.001
7:52 am 07:52 Cloudy with Light Rain 37 3 34 1 87 87 N 9 15 29.59 1002 2.5 4.02336 0.001 0.001
8:17 am 08:17 Cloudy with Light Drizzle 37 3 34 1 87 87 NW 8 13 29.59 1002 3 4.828032 0.001 0.001
8:25 am 08:25 Cloudy with Light Drizzle 37 3 34 1 87 87 NW 12 19 29.59 1002 2.5 4.02336 0.001 0.001
8:39 am 08:39 Cloudy with Light Drizzle 37 3 34 1 87 87 NNW 13 20 29.56 1001 1.75 2.816352 0.001 0.001
8:43 am 08:43 Cloudy with Light Drizzle 37 3 34 1 87 87 NNW 12 19 29.56 1001 1.5 2.414016 0.001 0.001
8:52 am 08:52 Cloudy with Light Drizzle 37 3 34 1 87 87 NNW 10 17 29.56 1001 1.75 2.816352 0.001 0.001
8:57 am 08:57 Cloudy with Light Drizzle 37 3 34 1 87 87 N 9 15 29.56 1001 2 3.218688 0.001 0.001
9:01 am 09:01 Cloudy with Light Drizzle 37 3 34 1 87 87 NNW 9 15 29.56 1001 2 3.218688 0.001 0.001
9:17 am 09:17 Cloudy with Light Drizzle 37 3 34 1 87 87 N 8 13 29.56 1001 3 4.828032 0.001 0.001
9:47 am 09:47 Cloudy 39 4 34 1 81 81 NNW 6 9 29.56 1001 9 14.484096 0 0
9:52 am 09:52 Cloudy 39 4 34 1 81 81 N 6 9 29.56 1001 10 16.09344 0.001 0.001
10:52 am 10:52 Cloudy 39 4 34 1 81 81 NW 8 13 29.56 1001 10 16.09344 0 0
11:52 am 11:52 Cloudy 39 4 34 1 81 81 NW 12 19 29.5 999 10 16.09344 0 0
12:52 pm 12:52 Cloudy 41 5 34 1 76 76 NW 14 22 29.47 998 10 16.09344 0 0
1:52 pm 13:52 Cloudy with Light Rain 41 5 34 1 76 76 NW 16 26 29.47 998 10 16.09344 0.001 0.001
2:40 pm 14:40 Cloudy 43 6 34 1 71 71 NW 8 13 29.47 998 10 16.09344 0 0
2:52 pm 14:52 Cloudy 43 6 34 1 71 71 WNW 8 13 29.47 998 10 16.09344 0.001 0.001
3:52 pm 15:52 Mostly Cloudy 43 6 32 0 66 66 WNW 10 17 29.5 999 10 16.09344 0 0
4:52 pm 16:52 Partly Cloudy 45 7 27 -3 49 49 WNW 15 24 29.53 1000 10 16.09344 0 0
5:52 pm 17:52 Mostly Clear 43 6 25 -4 49 49 WNW 12 19 29.56 1001 10 16.09344 0 0
6:52 pm 18:52 Mostly Clear 43 6 21 -6 42 42 WNW 17 28 29.59 1002 10 16.09344 0 0
7:52 pm 19:52 Clear 41 5 23 -5 49 49 WNW 7 11 29.62 1003 10 16.09344 0 0
8:52 pm 20:52 Clear 41 5 25 -4 53 53 W 6 9 29.62 1003 10 16.09344 0 0
9:52 pm 21:52 Partly Cloudy 39 4 25 -4 56 56 W 7 11 29.65 1004 10 16.09344 0 0
10:52 pm 22:52 Mostly Cloudy 39 4 25 -4 56 56 NW 8 13 29.65 1004 10 16.09344 0 0
11:52 pm 23:52 Cloudy 41 5 27 -3 57 57 WNW 9 15 29.68 1005 10 16.09344 0 0

Powered by AerisWeather